カタログに戻る

STARLINK-6110

運用中通信VLEO
NORAD 56907·PAYLOAD·🇺🇸 United States

打ち上げ Jun 12, 2023 から Cape Canaveral Space Force Station

Loading…

次のパス (今後24時間)

TLE

最新Source: CelesTrak SupGP

元期: Sep 14, 2026, 13:30 UTC

1 56907C 23083AH  26257.56298611 -.00000978  00000+0 -35442-4 0  2577
2 56907  42.9997  83.7077 0001405 257.2912 247.1332 15.27578064    17

AllMySatでSTARLINK-6110をリアルタイム追跡

Download on the App Store